Temp
16 17 18 18 18 16 16 16 16 19 18 16 16 17 17 17 18 18 18 19 20 19 19 19 19 19 19 20 21 22 22 22 22 23 23 23 23 22 22 21 21 20 20
17 17 17 18 18 18 17 17 18 17 17 16 16 16 16 16 16 17 17 18 18 18 18 19 19 19 19 19 20 20 21 22 22 22 22 22 22 22 21 21 20 21 21
18 17 16 17 17 18 18 18 18 17 17 15 14 14 15 15 15 15 15 16 17 18 19 18 18 18 19 19 19 19 20 20 21 22 21 21 21 22 22 22 21 21 21
15 13 13 13 15 16 16 15 15 17 16 16 15 15 14 14 14 14 15 15 15 16 17 18 18 18 18 19 19 19 19 20 21 20 21 22 22 22 22 22 22 22 22
12 11 11 10 10 10 9 9 10 10 9 9 10 10 12 12 13 15 15 15 15 15 16 16 17 18 18 18 18 18 19 19 19 19 20 21 22 22 22 23 23 23 23
13 12 12 12 12 11 11 9 9 9 9 9 9 9 9 10 11 12 13 13 13 13 14 14 14 16 17 19 18 18 18 18 18 18 19 20 21 22 22 22 23 23 23
10 10 10 9 9 9 9 8 8 8 8 9 9 9 9 9 9 9 9 11 12 11 12 12 13 15 15 16 18 19 18 18 18 18 18 19 20 20 21 20 20 20 20
11 10 10 10 9 9 9 8 8 8 8 8 8 8 8 9 9 8 8 8 9 10 10 11 11 12 13 14 16 18 17 17 18 18 18 19 18 18 19 18 18 19 19
11 10 10 9 9 8 8 8 7 7 7 8 7 7 7 7 8 8 8 8 8 8 9 9 11 11 12 13 15 16 17 18 18 18 18 18 17 18 18 17 18 17 17
11 10 9 9 9 9 8 8 7 7 7 7 7 6 6 7 7 7 7 8 8 8 8 9 9 10 11 12 14 15 15 16 16 17 17 17 17 16 17 17 17 16 16
10 10 10 9 9 9 8 8 7 7 6 6 6 6 6 8 8 7 8 7 8 8 8 8 9 10 11 13 14 15 15 16 15 15 16 17 16 16 16 18 18 17 17
10 10 10 10 10 10 9 9 8 7 7 6 5 5 6 7 7 8 8 9 9 8 8 8 8 10 12 14 14 15 15 15 15 15 16 16 16 17 16 17 17 17 17
10 10 10 10 11 10 10 10 9 8 7 5 5 5 5 6 7 8 8 8 9 8 8 7 7 8 11 12 13 14 14 14 15 15 15 15 16 17 17 17 17 17 18
11 11 11 11 12 12 11 11 9 9 7 6 5 5 5 5 5 7 8 9 8 8 8 9 9 8 9 11 12 12 13 14 14 14 15 15 16 16 16 16 17 16 16
11 11 12 13 13 12 12 11 10 9 8 7 6 6 4 4 5 6 7 8 8 8 8 9 9 9 10 10 11 13 13 13 14 15 15 15 16 15 16 16 15 16 16
11 12 12 12 13 13 12 11 10 9 9 8 6 6 5 5 6 6 8 10 10 9 9 8 8 9 10 11 12 13 13 13 14 15 15 15 15 15 15 15 15 16 15
10 11 12 12 13 12 12 12 11 10 9 9 7 7 6 5 5 6 9 11 10 9 8 9 9 9 10 12 12 13 13 14 14 15 15 14 15 15 15 15 14 14 14
11 12 12 13 13 12 12 11 10 10 9 9 8 7 6 5 5 5 7 9 10 9 8 8 10 12 12 12 12 13 13 14 14 14 14 14 14 13 13 13 13 13 14
12 13 13 13 13 13 12 13 12 11 10 9 8 8 7 6 5 5 6 6 7 8 9 9 10 12 12 12 13 13 13 13 14 14 13 13 13 13 12 11 12 12 11
13 13 13 14 14 14 13 13 12 12 11 10 10 9 8 7 6 6 5 6 5 7 9 9 10 11 11 11 12 11 12 12 12 12 12 12 12 12 11 12 11 11 10
13 14 14 14 14 14 14 14 13 12 12 11 11 9 8 7 7 6 5 5 5 5 7 8 8 9 9 9 10 10 10 10 10 10 10 10 11 11 11 11 11 12 11
13 13 14 13 14 14 14 14 14 14 13 12 11 10 9 8 7 7 7 6 6 6 6 5 5 7 8 8 8 8 9 9 8 9 9 9 9 10 10 10 11 12 11
14 14 14 14 14 14 14 14 14 14 14 13 12 11 10 8 9 8 7 7 7 6 6 6 6 7 6 6 7 7 7 7 7 8 9 9 10 10 11 11 11 12 11
14 14 14 14 14 14 14 14 14 14 13 13 13 13 12 10 9 8 8 7 7 8 7 7 7 6 7 7 7 7 8 9 9 8 9 9 10 11 11 12 12 12 12
14 15 15 15 15 15 14 14 14 14 13 13 13 12 12 12 11 10 9 8 8 7 7 7 7 8 8 8 8 8 8 8 9 9 9 9 9 10 10 11 11 11 11
14 15 15 15 15 15 14 14 14 13 13 13 12 12 12 11 11 11 10 10 9 9 8 7 6 6 7 7 7 7 8 8 8 8 8 8 8 8 9 9 10 10 11
Height
1565 1568 1575 1575 1573 1575 1575 1572 1570 1568 1568 1569 1567 1563 1561 1559 1558 1557 1555 1552 1550 1550 1548 1548 1548 1547 1547 1547 1547 1546 1544 1542 1538 1535 1536 1535 1534 1532 1532 1531 1530 1528 1526
1567 1567 1573 1571 1570 1570 1569 1567 1565 1564 1563 1562 1559 1556 1555 1553 1551 1550 1547 1547 1545 1543 1541 1540 1539 1538 1537 1538 1538 1537 1536 1535 1533 1529 1529 1528 1527 1527 1524 1522 1521 1521 1520
1563 1567 1568 1570 1569 1567 1563 1562 1559 1558 1555 1553 1551 1548 1546 1544 1545 1542 1540 1538 1536 1535 1534 1533 1532 1531 1528 1528 1528 1527 1527 1527 1525 1522 1520 1521 1519 1518 1517 1516 1515 1514 1512
1561 1562 1562 1565 1562 1559 1555 1554 1552 1549 1547 1544 1541 1539 1537 1536 1534 1533 1531 1529 1526 1525 1524 1522 1522 1522 1520 1519 1518 1517 1517 1517 1516 1516 1513 1512 1513 1513 1513 1512 1510 1509 1507
1561 1559 1556 1559 1556 1553 1553 1549 1546 1542 1541 1537 1533 1529 1526 1524 1524 1524 1523 1520 1517 1514 1512 1510 1510 1510 1510 1510 1509 1506 1507 1506 1506 1506 1506 1504 1504 1505 1505 1504 1502 1502 1501
1555 1555 1556 1555 1553 1551 1547 1544 1541 1538 1534 1529 1524 1519 1515 1512 1510 1509 1507 1505 1504 1501 1499 1498 1496 1495 1495 1496 1496 1496 1497 1495 1494 1495 1495 1496 1496 1496 1497 1497 1496 1495 1494
1557 1556 1555 1553 1550 1546 1543 1539 1534 1529 1525 1520 1516 1512 1506 1501 1498 1496 1495 1493 1489 1487 1486 1485 1483 1484 1483 1483 1482 1483 1483 1483 1483 1484 1483 1483 1484 1486 1487 1487 1488 1488 1488
1555 1553 1550 1547 1544 1541 1538 1533 1528 1523 1517 1512 1507 1501 1495 1489 1486 1484 1482 1479 1475 1471 1470 1469 1468 1467 1469 1470 1471 1470 1470 1471 1470 1471 1471 1469 1473 1475 1479 1480 1480 1479 1479
1552 1550 1547 1545 1541 1536 1532 1526 1522 1515 1509 1503 1496 1488 1481 1474 1473 1470 1468 1465 1459 1454 1454 1454 1452 1451 1451 1455 1458 1456 1456 1455 1460 1461 1461 1461 1461 1464 1468 1470 1470 1470 1467
1548 1545 1542 1539 1535 1531 1526 1522 1517 1510 1502 1495 1482 1476 1468 1459 1456 1454 1454 1451 1444 1442 1440 1436 1435 1435 1438 1442 1443 1444 1443 1441 1446 1450 1450 1450 1451 1452 1455 1458 1458 1458 1457
1544 1541 1537 1533 1530 1526 1521 1517 1510 1503 1495 1486 1475 1467 1457 1449 1440 1438 1437 1435 1430 1426 1422 1420 1420 1421 1423 1426 1429 1431 1428 1433 1435 1437 1439 1440 1442 1442 1443 1445 1446 1446 1446
1539 1536 1533 1530 1526 1522 1516 1511 1505 1497 1489 1479 1468 1456 1447 1437 1429 1423 1422 1419 1416 1412 1406 1406 1406 1410 1413 1415 1418 1418 1419 1423 1423 1423 1426 1427 1430 1433 1435 1435 1436 1436 1436
1535 1531 1528 1524 1519 1516 1512 1506 1501 1495 1486 1475 1463 1450 1438 1429 1419 1412 1407 1404 1401 1397 1393 1392 1393 1394 1395 1396 1399 1403 1408 1409 1410 1411 1413 1417 1419 1424 1427 1426 1427 1428 1427
1530 1527 1523 1519 1514 1512 1507 1503 1498 1492 1481 1471 1459 1446 1432 1419 1409 1402 1396 1391 1388 1384 1382 1380 1381 1382 1384 1385 1387 1391 1394 1397 1399 1399 1402 1406 1410 1413 1415 1418 1418 1419 1419
1526 1523 1519 1514 1510 1506 1503 1499 1494 1488 1478 1468 1456 1446 1431 1415 1403 1392 1383 1378 1376 1375 1374 1372 1373 1374 1374 1375 1377 1378 1384 1385 1385 1390 1393 1396 1399 1404 1406 1409 1410 1411 1412
1522 1518 1514 1510 1505 1501 1496 1492 1487 1480 1473 1467 1457 1445 1431 1414 1393 1377 1365 1358 1357 1359 1363 1364 1364 1366 1366 1367 1368 1370 1372 1374 1375 1380 1383 1387 1391 1393 1396 1400 1402 1403 1404
1517 1514 1510 1505 1501 1497 1493 1488 1481 1475 1470 1461 1452 1440 1426 1407 1384 1365 1349 1341 1340 1346 1348 1351 1354 1357 1359 1361 1361 1362 1363 1365 1368 1371 1375 1378 1384 1386 1389 1392 1394 1395 1396
1514 1509 1504 1501 1497 1492 1487 1482 1477 1469 1460 1452 1446 1436 1423 1407 1385 1368 1348 1342 1343 1344 1344 1345 1345 1347 1352 1354 1356 1357 1357 1359 1362 1363 1368 1372 1376 1378 1381 1384 1387 1389 1390
1509 1504 1501 1497 1492 1487 1482 1477 1472 1465 1459 1451 1442 1433 1422 1408 1393 1375 1363 1352 1348 1346 1343 1343 1343 1344 1346 1346 1347 1350 1352 1354 1356 1359 1364 1366 1369 1372 1378 1382 1385 1387 1388
1504 1500 1497 1492 1487 1482 1478 1474 1467 1462 1455 1448 1440 1432 1423 1412 1395 1385 1376 1368 1359 1351 1347 1343 1341 1341 1341 1342 1345 1347 1350 1351 1356 1356 1361 1369 1371 1373 1377 1383 1386 1388 1389
1499 1495 1492 1487 1483 1478 1474 1469 1464 1457 1451 1446 1439 1432 1426 1419 1411 1402 1389 1382 1367 1362 1358 1354 1348 1344 1346 1348 1351 1353 1348 1358 1358 1350 1366 1367 1372 1374 1380 1385 1390 1390 1391
1496 1491 1487 1484 1479 1475 1470 1464 1459 1454 1449 1444 1438 1431 1426 1421 1416 1411 1402 1393 1386 1381 1378 1373 1366 1358 1357 1359 1360 1362 1360 1371 1376 1373 1367 1376 1377 1375 1379 1386 1393 1390 1389
1490 1486 1483 1479 1475 1471 1466 1461 1456 1452 1447 1443 1437 1432 1427 1423 1419 1414 1409 1403 1399 1394 1389 1386 1381 1374 1374 1377 1375 1373 1376 1381 1374 1374 1376 1380 1376 1380 1389 1394 1394 1387 1387
1485 1481 1477 1473 1470 1467 1462 1458 1454 1450 1447 1442 1438 1435 1430 1423 1420 1416 1413 1409 1406 1403 1399 1395 1390 1390 1394 1394 1393 1391 1389 1386 1381 1381 1384 1384 1383 1387 1389 1391 1391 1390 1392
1480 1475 1471 1467 1464 1461 1458 1455 1452 1449 1446 1443 1439 1436 1432 1429 1425 1419 1416 1412 1408 1406 1405 1404 1401 1400 1400 1401 1399 1397 1395 1390 1387 1387 1390 1390 1391 1392 1393 1393 1392 1391 1391
1475 1470 1466 1463 1460 1457 1455 1453 1450 1448 1445 1442 1439 1436 1433 1430 1427 1424 1421 1419 1415 1411 1409 1407 1406 1404 1404 1403 1401 1399 1396 1393 1393 1393 1393 1394 1394 1393 1393 1394 1393 1393 1394
Wind_Speed
12 11 13 10 7 8 10 13 14 17 23 23 24 24 24 23 22 19 21 23 22 24 28 31 33 31 29 28 29 31 30 28 36 31 28 25 24 23 24 24 24 26 23
5 1 6 10 14 15 16 18 21 23 25 26 27 27 27 27 26 26 26 25 24 25 26 28 31 29 35 36 33 35 33 32 31 30 29 28 28 28 30 30 26 21 23
7 10 12 14 15 17 19 23 26 28 29 28 28 30 31 30 30 30 29 31 31 32 29 29 30 31 35 35 38 39 34 36 36 37 40 37 32 29 27 24 23 25 22
4 4 7 12 17 21 22 24 26 29 32 32 32 35 35 34 33 33 32 35 34 34 34 31 32 30 33 35 38 40 42 42 40 33 32 32 32 31 30 29 26 24 23
7 6 9 12 16 17 17 21 24 26 27 29 32 33 35 36 33 32 33 34 35 33 32 36 38 36 36 34 37 39 39 42 45 41 38 39 36 31 29 28 28 25 25
11 11 13 16 18 20 22 23 26 27 29 32 34 35 39 36 36 37 40 42 36 40 41 40 39 42 42 42 43 42 42 42 44 45 46 37 39 35 31 28 28 27 25
7 8 10 12 15 17 19 23 27 29 29 31 35 38 42 43 42 42 41 45 50 48 46 46 45 40 38 38 40 44 43 44 45 48 50 50 46 40 28 26 25 25 27
9 11 14 16 20 21 26 29 33 32 32 37 42 42 42 45 44 45 44 44 48 53 54 49 48 49 46 44 45 45 42 40 42 43 48 55 55 50 42 37 33 35 39
10 12 14 15 18 20 24 27 30 34 36 42 43 48 47 47 42 44 41 44 47 48 48 49 51 51 48 48 47 47 50 52 41 39 40 43 44 49 42 41 41 34 37
14 15 16 18 19 22 24 26 32 33 38 43 46 44 45 48 45 42 38 40 46 49 51 50 50 51 50 47 47 46 47 50 44 42 40 42 34 35 36 35 36 35 37
16 18 20 22 23 25 26 28 32 37 39 46 47 46 45 45 46 40 38 38 42 46 49 46 45 45 45 44 42 43 47 44 40 37 40 41 41 33 31 33 32 34 36
17 19 21 22 23 25 28 30 34 42 39 47 49 50 47 40 41 41 38 35 36 42 51 48 45 40 38 39 39 42 40 36 38 39 39 43 43 41 33 28 30 30 34
18 22 22 22 24 21 26 30 31 39 38 42 45 50 51 42 40 39 39 37 34 37 42 46 47 44 47 43 44 43 35 33 39 39 39 43 44 40 33 26 27 29 29
19 23 21 22 22 20 25 23 29 31 36 36 47 55 57 55 45 36 32 40 38 31 32 35 34 33 35 47 46 41 35 36 39 39 40 37 36 34 31 30 27 23 27
20 20 20 22 22 24 22 27 25 28 34 40 41 49 60 59 50 39 39 40 41 33 28 23 27 29 23 29 32 34 34 36 40 40 35 34 31 32 36 32 28 24 24
18 18 20 21 23 24 24 27 29 32 30 38 41 42 60 62 47 36 40 45 41 37 32 36 36 36 32 22 30 32 32 35 34 31 31 31 30 29 28 27 23 22 18
19 18 20 21 22 25 26 27 31 34 33 40 39 46 59 63 54 49 29 24 20 26 34 36 37 41 34 29 27 28 31 33 30 28 31 29 30 30 28 21 14 15 15
18 20 22 21 25 25 25 27 25 30 34 37 38 42 53 60 60 54 35 18 11 16 27 34 36 39 33 32 29 29 28 28 29 27 25 24 22 17 15 17 14 13 12
19 20 20 24 25 25 26 23 27 29 29 33 33 41 43 53 58 54 58 39 32 22 13 18 18 25 29 27 28 30 28 29 28 23 23 20 22 18 13 15 16 16 16
18 21 22 23 25 24 26 28 26 28 30 29 31 34 37 43 56 53 50 59 51 40 31 28 27 15 15 14 14 20 25 20 22 27 25 21 15 17 16 14 14 14 11
20 21 22 24 25 24 27 26 29 22 23 25 25 26 25 32 38 43 42 45 51 55 48 40 40 36 32 29 24 24 29 23 14 26 19 19 18 20 16 12 9 10 10
20 24 22 23 27 25 26 29 24 23 23 21 19 21 23 22 28 31 37 37 36 40 39 42 43 41 38 35 30 26 21 15 11 14 18 14 15 17 16 10 8 13 12
20 24 22 24 23 26 26 25 26 23 24 22 18 17 14 13 21 22 22 27 29 29 30 29 31 34 34 32 29 30 28 21 21 17 12 11 15 7 5 11 13 10 12
24 27 24 25 24 23 22 23 23 21 19 20 19 19 19 13 13 12 19 17 17 18 19 22 24 22 20 16 13 12 12 14 14 19 18 14 15 12 8 7 7 10 12
27 25 26 23 20 19 19 20 20 18 17 16 16 16 17 17 17 13 13 13 14 15 11 11 10 12 12 12 12 12 12 12 11 11 12 11 10 9 9 7 8 5 4
23 23 21 21 20 17 17 18 16 15 15 14 14 14 15 15 15 13 14 15 12 8 8 8 7 8 8 9 10 9 8 8 8 6 8 8 8 8 4 6 7 5 3
Wind_Direction
129 173 217 244 263 284 300 309 308 291 285 291 290 295 295 293 290 285 285 291 282 272 270 265 261 260 259 259 263 269 263 260 264 270 271 270 269 269 269 266 271 273 276
103 98 280 287 285 292 293 290 291 289 286 287 291 291 289 289 289 284 282 274 273 282 279 271 270 271 264 262 256 253 258 261 267 276 268 268 266 266 270 274 272 269 266
322 277 301 303 292 288 292 292 294 294 293 293 292 291 288 283 279 278 277 273 273 274 268 264 268 271 270 269 263 260 253 263 263 263 266 268 266 264 267 269 270 276 279
2 2 318 310 308 311 308 304 302 299 296 294 289 284 279 277 277 275 272 274 272 273 274 267 261 263 270 269 269 266 262 255 254 260 260 260 263 266 267 266 266 269 271
7 10 348 334 331 329 315 316 313 310 302 298 295 291 286 280 278 279 279 276 274 272 268 260 266 264 259 259 263 269 266 263 259 254 259 260 261 261 260 261 261 267 268
5 356 344 340 336 330 325 322 317 311 306 303 299 296 292 285 280 266 260 265 266 265 263 263 264 266 266 255 255 258 264 266 262 260 253 257 256 260 263 265 269 270 272
15 5 356 352 348 344 336 327 324 314 308 304 301 297 290 286 284 280 274 264 263 264 263 263 264 263 261 260 258 259 261 262 260 260 257 251 253 254 262 270 263 264 271
358 347 344 343 343 339 334 327 324 320 311 311 307 301 293 290 288 283 278 276 271 263 258 257 259 261 261 259 262 261 258 262 265 262 257 255 254 256 268 261 264 269 269
332 329 327 322 322 328 332 335 329 324 318 318 308 305 303 298 292 284 283 278 274 271 268 265 262 263 262 262 263 264 263 258 252 260 263 266 263 258 260 259 269 265 262
317 314 316 314 315 317 323 326 327 324 325 324 314 311 309 302 299 292 281 273 272 270 268 265 263 259 256 253 258 260 260 262 262 255 256 258 259 260 259 263 260 253 254
314 312 308 309 314 313 313 311 324 325 323 332 333 324 318 311 304 299 291 280 271 270 268 267 264 262 261 260 259 258 258 260 258 257 255 257 259 250 255 264 258 252 250
311 310 304 305 310 309 312 315 321 330 321 330 334 328 329 325 317 306 298 291 285 275 268 268 261 256 254 260 257 259 261 261 262 256 254 254 254 262 245 255 255 260 257
310 311 308 313 311 311 316 325 331 334 334 339 341 339 337 332 322 309 303 293 287 280 271 266 265 256 241 245 241 243 249 250 253 255 252 252 250 252 254 248 247 259 259
310 314 313 307 312 315 321 324 326 333 337 337 355 355 347 342 330 319 303 292 292 283 281 278 267 263 254 242 247 250 251 245 248 252 250 256 257 260 239 240 254 253 255
307 309 310 313 319 326 328 324 319 324 325 339 324 338 347 341 334 318 294 279 270 270 258 252 244 247 257 257 257 255 239 246 246 246 245 251 250 246 242 242 246 253 251
305 311 315 317 319 321 322 321 319 324 330 334 345 346 349 349 344 333 287 282 271 261 249 259 272 262 261 265 258 250 246 245 249 239 239 244 237 232 235 242 241 244 244
300 308 312 314 322 324 322 320 319 318 317 328 339 347 351 353 356 1 321 305 262 246 241 242 248 259 260 254 265 253 250 248 247 235 236 229 227 239 232 211 205 213 222
306 306 307 317 317 309 314 314 313 320 320 328 335 345 354 358 3 13 26 22 329 260 249 246 247 243 254 272 264 257 245 229 246 230 231 218 198 191 202 219 224 232 238
300 305 310 313 314 318 310 318 319 317 326 326 339 348 353 359 7 20 31 41 47 42 317 280 278 261 267 271 262 250 247 242 230 206 189 170 170 182 172 146 147 139 118
298 302 307 311 315 321 318 323 322 319 320 322 336 343 352 360 10 12 25 31 33 55 67 73 74 105 123 150 156 141 171 158 155 146 135 144 135 138 134 138 130 132 122
305 308 311 311 316 320 321 320 326 316 329 332 338 341 357 6 16 18 26 30 34 37 45 59 65 86 88 94 92 104 102 105 103 109 126 123 127 126 124 131 146 138 142
305 303 310 309 308 318 320 323 324 331 329 337 341 344 352 356 15 23 22 29 30 33 35 39 41 62 67 76 79 89 97 81 102 110 99 116 110 91 92 94 190 166 147
304 301 306 303 309 315 319 323 326 334 336 340 348 354 353 348 3 21 28 38 29 34 30 41 42 44 43 46 52 66 79 71 73 78 117 105 83 90 196 220 232 214 171
299 302 302 301 303 306 314 319 328 332 337 342 347 353 358 351 356 0 19 33 39 37 26 27 37 52 59 54 57 58 55 52 63 64 62 52 61 50 86 106 75 90 128
303 299 302 306 304 305 309 317 324 329 335 342 348 351 354 358 1 3 7 8 22 30 43 40 32 35 32 22 17 14 16 28 48 60 51 44 41 60 41 32 49 48 56
299 298 306 307 305 306 310 314 314 321 329 335 341 348 349 352 356 357 2 357 351 357 15 19 31 22 13 26 22 16 9 360 354 0 46 31 26 360 23 14 347 3 335